Weather past 2 weeks in Amsterdam Island, French Southern Territories

Now
52 °F

Cool.


Feels Like: 48 °F
Forecast: 55 / 59 °F
Wind: 10 mph from Southwest

Location: Martin De Vivies Ile Amsterdam

Current Time: Apr 27, 2015 at 6:19:01 PM

Latest Report: Apr 27, 2015 at 5:00 PM


Visibility: N/A

Pressure: 30.06 "Hg

Humidity: 75%

Dew point: 44 °F

Location of Amsterdam IslandLocation

Historic Weather in Amsterdam Island — Graph

°F

Amsterdam Island temperature yesterday

Maximum temperature yesterday: 65 °F (at 2:00 PM)
Minimum temperature yesterday: 56 °F (at 7:00 PM)
Average temperature yesterday: 59 °F

Past Weeks' High & Low Weather Summary

 TemperatureHumidityPressure
High71 °F (Apr 15, 2:00 PM)96% (Apr 16, 7:00 AM)30.49 "Hg (Apr 16, 7:00 AM)
Low52 °F (Apr 27, 5:00 PM)55% (Apr 12, 9:00 PM)29.73 "Hg (Apr 15, 5:00 PM)
Average61 °F82%30.09 "Hg
* Reported Apr 12 5:00 PM — Apr 27 5:00 PM, Amsterdam Island, Weather by CustomWeather, © 2015

Note: Actual official high and low records may vary slightly from our data, if they occured in-between our weather recording intervals... More about our weather records

Advertising

Amsterdam Island weather history for previous 24 hours

 ConditionsComfort  
Time TempWeatherWind HumidityBarometerVisibility
5:00 PM
Mon, Apr 27
52 °FCool.10 mph75%30.06 "HgN/A
4:00 PM56 °FCool.12 mph64%30.03 "HgN/A
3:00 PM56 °FCool.16 mph67%30.01 "HgN/A
2:00 PM58 °FRefreshingly cool.16 mph59%29.99 "HgN/A
1:00 PM59 °FRefreshingly cool.21 mph57%29.97 "HgN/A
12:00 PM60 °FCool.21 mph60%29.95 "HgN/A
11:00 AM59 °FCool.28 mph64%29.93 "HgN/A
10:00 AM59 °FCool.28 mph76%29.90 "HgN/A
9:00 AM58 °FCool.25 mph85%29.87 "HgN/A
8:00 AM62 °FCool.22 mph78%29.85 "HgN/A
7:00 AM60 °FCool.22 mph84%29.83 "HgN/A
6:00 AM59 °FCool.24 mph84%29.82 "HgN/A
5:00 AM60 °FCool.25 mph82%29.82 "HgN/A
4:00 AM58 °FCool.21 mph88%29.81 "HgN/A
3:00 AM58 °FCool.24 mph92%29.82 "HgN/A
2:00 AM60 °FCool.18 mph91%29.83 "HgN/A
1:00 AM61 °FCool.17 mph83%29.84 "HgN/A
12:00 AM60 °FCool.15 mph82%29.85 "HgN/A
11:00 PM
Sun, Apr 26
60 °FCool.13 mph84%29.87 "HgN/A
10:00 PM60 °FCool.10 mph84%29.89 "HgN/A
9:00 PM59 °FCool.12 mph85%29.89 "HgN/A
8:00 PM59 °FCool.8 mph87%29.90 "HgN/A
7:00 PM56 °FCool.6 mph86%29.90 "HgN/A
6:00 PM56 °FCool.6 mph84%29.90 "HgN/A
Weather by CustomWeather, © 2015

See weather overviewHow to use our weather pages